sat.trackr.live / text

‹ back to catalog

STARLINK-4159

NORAD 53292 · 2022-086BC

PAYLOAD ACTIVE UNKNOWN

§ Identity

Operator
Country
US
Launch date
2022-07-24
Launch site
AFETR
Launch vehicle
Mass (kg)
RCS (m²)

Purposes: comms

External: N2YO · Heavens-Above · Gunter

§ Orbital elements

Epoch: 2026-05-25T04:10:06.848832Z

Period
95.44 min
Inclination
53.2123°
Eccentricity
0.0001462
Mean motion
15.08842527 rev/d
Perigee alt
538.7 km
Apogee alt
540.7 km
Semi-major
6,917.9 km
B*
-9.1059e-5
RAAN
200.9551°
Arg perigee
82.1293°
Mean anomaly
277.9865°
Rev number
21,273

§ Raw data

STARLINK-41591 53292U 22086BC  26145.17369038 -.00001737  00000+0 -91059-4 0  99912 53292  53.2123 200.9551 0001462  82.1293 277.9865 15.08842527212730

JSON: /api/v1/satellites/53292 · /tle

For live sub-satellite position, see the globe view (requires WebGL).

§ Visibility from observer

Set your observer location to see the next 7 days of passes ≥ 10°. The values pass through the URL so the page stays shareable.

No JS? Fill the form by hand. The geolocation button needs JavaScript.